Location: Franzen
(48.6167°N, 15.3833°E)
Time: 23:43:48
(UTC+00:00)

Cosmos 2219 - Pass Details

Date: 07 August 2021
Orbit: 834 x 859 km, 71.1° (Epoch: 22 September)

Event Time Altitude Azimuth Distance (km) Brightness Sun altitude
Exits shadow 00:16:59 - 272° (W) 3,205 6.0 -23.0°
Reaches altitude 10° 00:19:48 10° 291° (WNW) 2,501 5.7 -22.8°
Maximum altitude 00:23:07 15° 326° (NNW) 2,141 5.7 -22.7°
Drops below altitude 10° 00:26:26 10° 2° (N) 2,507 6.6 -22.5°
Sets 00:30:03 0° 25° (NNE) 3,445 7.9 -22.2°
